SCP
0 0 0 0 0 0 0 -0 -0 -0 0 0 0 0 0 0 0 0 0 0 0 0 0 0 -0 0 -0 -0 -0 -0 -0 -1 -1 -0 0 0 0 0 0 0 0 1 1 1
0 0 0 0 0 0 0 0 0 0 0 0 0 0 0 0 0 0 0 0 0 0 0 0 -0 -0 -0 -0 -0 -0 -0 -1 -0 -0 0 0 0 0 0 1 1 2 1 2
0 0 0 0 0 0 0 0 0 0 0 0 0 0 0 0 0 -0 -0 -0 0 0 0 -0 0 -0 -0 -0 -0 -0 -0 -0 -0 0 0 0 0 1 1 2 3 4 3 2
0 0 0 0 0 0 0 0 0 0 0 0 0 0 0 0 0 0 0 0 -0 0 0 0 0 0 0 0 0 0 -0 -0 -0 0 0 0 1 1 2 3 5 5 5 4
0 0 0 0 0 0 0 0 0 0 0 0 0 0 0 0 0 0 0 0 0 0 0 0 0 1 0 0 0 0 0 0 0 0 0 1 1 1 2 5 5 5 4 2
0 0 0 0 0 0 0 0 0 0 0 0 0 0 0 0 0 0 0 0 0 0 0 0 0 0 0 0 0 0 0 1 1 1 1 1 2 3 6 5 5 4 2 1
0 0 0 0 0 0 0 0 0 0 0 0 0 0 0 0 0 0 0 0 0 0 0 0 0 0 0 0 1 1 1 2 2 2 1 2 3 5 4 3 2 1 1 1
0 0 0 0 0 0 0 0 0 0 0 0 0 0 0 0 0 0 1 1 0 0 0 1 0 0 1 1 1 2 2 2 2 2 2 2 3 3 1 1 1 0 0 0
0 0 0 0 0 0 0 0 0 0 0 0 0 0 0 0 0 1 0 0 0 0 1 2 1 1 2 2 3 3 3 3 2 2 2 3 2 1 0 0 0 0 0 0
0 0 0 0 0 0 0 0 0 0 0 0 0 0 0 0 1 0 1 1 1 1 1 2 2 4 4 4 3 3 2 2 2 2 3 2 1 0 0 0 0 0 0 0
0 0 0 0 0 0 0 0 0 0 0 0 0 0 0 0 0 1 0 1 1 2 3 3 5 5 4 4 3 2 2 2 2 1 0 0 0 0 0 0 0 0 0 0
0 0 0 0 0 0 0 0 0 0 0 0 0 0 0 0 0 1 1 1 1 1 2 4 4 6 5 3 2 2 2 2 1 0 0 0 0 0 -0 0 -0 0 0 0
0 0 0 0 0 0 0 0 0 0 0 0 0 0 0 0 2 2 3 2 1 1 1 1 2 2 1 1 2 2 1 0 0 0 0 0 0 0 0 0 -0 0 0 0
0 0 0 0 0 0 0 0 0 0 0 0 0 0 0 0 0 2 3 4 4 3 2 1 1 1 1 1 1 1 0 0 0 0 0 0 0 0 0 0 0 0 0 0
0 0 0 0 0 0 0 0 0 0 0 0 0 0 0 0 0 3 3 4 3 2 2 1 1 1 1 1 1 1 0 0 1 0 0 0 0 0 0 0 0 0 0 0
0 0 0 0 0 0 0 0 0 0 0 0 0 0 0 0 0 2 4 4 4 2 2 2 1 1 1 1 1 1 1 1 0 0 0 0 0 0 0 0 0 0 0 0
0 0 0 0 0 0 0 0 0 0 0 0 0 0 0 0 0 0 2 5 6 3 3 2 1 1 1 1 1 1 1 0 0 0 0 0 0 0 0 0 0 0 0 0
0 0 0 0 -0 0 0 0 0 0 0 0 0 0 0 0 0 0 1 3 6 4 2 2 2 1 1 1 1 1 1 1 0 0 0 0 0 0 0 0 0 0 0 0
0 0 0 -0 0 0 0 0 0 0 0 0 0 0 0 0 0 0 1 1 6 5 4 2 1 2 2 1 1 1 1 0 0 0 0 0 0 0 0 0 0 0 0 0
0 0 0 0 -0 -0 0 0 0 0 0 0 0 0 0 0 0 0 1 1 2 7 3 2 1 2 1 1 0 0 0 0 0 0 0 0 0 0 0 0 0 0 0 0
0 0 0 0 0 0 0 0 0 0 0 0 0 0 0 0 0 0 0 3 2 1 1 0 1 1 1 1 0 0 0 0 0 0 0 0 0 0 0 0 0 0 0 0
-0 0 0 0 0 0 0 0 0 0 0 0 0 0 0 0 0 0 0 1 2 1 1 0 1 1 1 0 0 0 0 0 0 0 0 0 0 0 0 0 0 0 0 0
-0 -0 -0 0 0 0 0 0 0 0 0 0 0 0 -0 -0 0 0 0 0 2 0 2 1 1 1 0 1 0 1 1 1 0 0 0 0 0 0 0 0 0 0 0 0
-0 -0 -0 -0 -0 0 0 0 0 0 0 0 0 0 0 0 0 0 0 0 1 1 1 2 0 0 0 1 1 1 1 1 0 0 0 0 0 0 0 0 0 0 0 0
0 -0 -0 -0 0 0 0 0 0 -0 0 0 0 0 0 0 0 0 0 0 0 0 1 0 0 0 0 1 1 0 0 0 0 0 0 0 0 0 0 0 0 0 0 0
0 0 0 -0 -0 -0 -0 0 0 0 0 0 0 0 0 0 0 0 1 1 1 0 1 2 1 0 0 0 0 0 0 0 0 0 0 0 0 0 0 0 0 0 0 0
-0 0 0 0 -0 -0 0 -0 -0 0 0 0 0 0 0 0 0 0 0 1 1 1 1 2 1 0 0 0 0 0 0 0 0 0 0 0 0 0 0 0 0 0 0 0
Wind_Speed_500mb
42 45 48 51 50 55 51 55 53 50 48 45 32 19 13 16 5 6 7 20 35 44 48 52 61 63 60 56 56 56 56 54 52 54 56 57 57 51 45 42 35 34 33 33
42 29 35 56 55 57 54 50 54 51 46 40 53 36 25 24 14 8 8 9 26 37 45 58 69 71 70 68 66 61 58 56 55 57 52 49 43 38 35 34 31 32 33 33
38 44 28 42 48 55 48 55 50 46 34 22 28 25 35 34 28 21 13 9 19 31 36 57 73 73 73 70 68 62 59 56 49 42 39 32 27 24 23 23 24 27 29 31
35 33 47 21 36 42 45 46 46 44 33 34 37 30 25 18 20 23 22 23 18 23 26 29 51 66 64 62 63 59 57 46 40 35 28 29 22 19 18 20 24 26 29 29
32 39 25 37 12 15 33 23 9 14 5 7 8 19 40 40 36 33 31 28 18 18 24 23 36 57 63 62 57 48 45 44 39 28 26 26 20 17 18 24 27 28 31 32
22 41 42 15 11 9 8 19 9 4 6 7 11 19 19 11 16 28 34 37 31 21 25 21 29 39 43 49 48 49 45 39 34 30 32 28 26 24 26 26 29 37 36 34
18 27 16 15 8 4 29 7 8 7 8 13 13 19 43 38 33 34 39 38 38 31 25 22 31 38 43 43 42 40 41 39 38 40 35 33 26 26 30 31 38 42 48 46
13 32 16 29 9 6 16 13 16 16 15 23 31 41 43 44 42 38 37 34 29 31 30 27 34 43 45 44 46 47 46 45 43 39 34 28 25 32 35 41 48 53 58 49
14 12 22 36 30 21 19 16 22 23 23 24 32 38 42 44 39 36 34 27 23 29 32 30 35 43 49 51 54 53 51 45 41 37 31 27 31 39 45 48 55 57 55 48
4 18 25 29 28 24 26 25 24 26 27 30 33 39 40 37 32 27 21 21 24 35 35 36 43 48 54 59 57 53 49 45 39 34 33 35 39 41 49 53 56 53 45 40
20 17 17 15 28 24 30 27 28 29 30 36 42 42 39 33 27 18 16 16 28 36 43 49 53 57 59 58 55 52 47 42 37 33 35 46 51 50 51 49 40 37 37 37
12 15 13 15 28 21 34 33 33 35 37 39 50 48 39 29 21 9 10 19 31 38 46 60 62 65 60 56 52 47 43 39 35 42 47 50 54 58 56 46 39 38 39 36
9 18 20 28 26 14 36 33 33 34 34 37 47 51 39 30 21 1 11 22 31 38 46 65 69 64 58 53 45 37 30 40 47 49 56 53 53 52 49 44 34 34 40 39
26 34 38 31 34 33 32 32 32 30 27 31 40 47 46 32 30 6 9 21 29 39 53 66 66 61 54 47 41 36 41 44 44 45 44 43 41 43 47 49 51 50 44 40
26 21 32 38 37 34 32 32 31 28 29 32 35 45 51 40 29 26 14 18 30 45 48 56 60 57 50 45 42 41 47 43 41 43 46 47 38 39 38 39 39 46 51 46
42 41 38 39 46 41 34 29 27 28 29 32 35 39 45 43 27 24 11 16 26 42 49 54 54 52 49 46 46 46 42 45 45 54 46 41 42 41 40 39 38 39 42 49
50 46 39 37 40 43 40 35 31 31 32 32 33 36 39 40 35 12 17 7 8 32 43 47 48 48 46 46 43 41 42 45 45 43 41 43 42 41 39 38 37 38 37 46
50 53 53 49 48 48 48 42 37 35 34 34 33 33 32 35 39 30 5 5 6 21 33 42 45 47 47 45 40 37 40 51 43 44 43 42 40 39 37 34 37 39 38 44
47 59 58 54 53 51 49 49 43 39 35 34 32 32 31 30 31 31 19 7 4 15 26 33 40 41 43 42 37 36 44 48 47 45 42 43 42 37 38 40 41 41 40 51
47 46 48 46 47 43 42 44 42 40 36 33 33 33 35 33 29 28 27 20 19 8 19 33 36 33 37 40 44 40 45 48 48 44 42 41 39 40 39 42 41 41 41 48
53 40 34 27 32 35 34 33 35 37 35 35 37 35 37 37 29 26 25 28 29 31 23 26 32 30 39 43 48 41 45 47 45 44 42 43 43 42 42 43 42 41 42 45
71 40 27 19 22 29 31 29 29 30 31 32 34 37 38 40 34 31 30 29 21 29 32 33 39 42 36 44 43 43 46 46 45 44 44 44 45 46 46 46 45 44 43 44
73 59 35 21 17 24 27 29 30 32 36 36 38 40 43 41 35 32 29 24 28 37 35 31 36 47 51 46 47 47 48 47 47 46 48 48 48 47 48 49 48 46 45 46
68 66 55 36 22 16 23 31 37 42 46 49 45 46 42 44 42 39 38 35 37 45 42 39 54 51 52 46 50 51 51 50 49 47 48 50 50 48 47 50 50 48 47 49
79 74 58 50 60 52 27 25 23 24 28 34 37 37 40 41 48 41 35 36 38 41 48 51 55 45 50 49 53 51 52 52 52 50 52 54 54 53 52 52 53 53 52 50
64 85 62 61 53 58 42 17 17 13 21 19 18 17 24 33 38 45 45 39 35 38 46 44 52 53 50 52 52 50 51 52 53 55 53 54 56 56 56 55 57 59 56 55
54 64 78 65 55 50 57 58 39 45 18 11 11 14 12 2 14 27 36 41 43 43 48 41 41 50 51 51 54 51 52 53 54 56 59 60 60 62 61 61 59 60 58 56
Wind_Direction_500mb
227 196 201 199 213 211 216 221 222 220 217 237 194 210 186 165 156 33 106 179 195 196 197 197 202 206 210 214 215 218 226 231 236 240 244 247 250 252 253 251 243 237 232 230
221 210 221 202 205 212 211 221 235 235 242 217 240 235 233 243 238 271 297 204 203 206 207 208 209 210 210 216 220 222 228 233 240 243 247 252 252 252 251 247 234 228 223 215
214 211 202 210 201 212 211 219 222 226 221 193 215 230 240 246 262 276 268 219 218 217 212 219 218 216 218 218 224 225 231 234 236 241 246 248 249 239 230 221 219 221 208 200
207 200 215 200 198 209 213 220 226 236 236 250 248 247 267 262 246 253 258 267 254 237 229 232 225 223 219 220 223 221 226 230 236 239 237 234 231 233 211 194 198 197 192 189
210 207 200 201 181 211 211 184 28 293 170 246 273 281 260 251 254 260 267 265 266 262 267 266 224 216 217 216 219 218 224 224 226 222 210 201 189 188 179 186 184 178 169 172
205 199 206 82 23 359 311 183 50 26 247 289 294 229 231 3 295 272 266 260 264 263 271 287 213 209 213 215 214 215 213 212 205 193 189 171 167 168 173 169 164 158 156 169
207 207 99 351 346 234 201 156 12 339 319 304 277 284 310 311 298 287 278 270 263 256 252 256 205 191 196 200 198 196 192 188 181 176 161 164 166 166 165 161 154 151 156 158
235 216 133 347 124 277 40 36 10 348 340 311 296 295 299 298 291 285 282 275 259 232 232 231 197 192 189 181 177 177 174 170 163 153 156 155 159 155 152 154 154 157 159 146
351 74 90 62 78 82 50 37 13 356 342 326 312 306 302 300 296 287 280 274 238 206 209 209 191 179 175 169 166 165 159 151 148 147 148 146 153 154 153 158 159 160 154 147
194 118 95 74 62 57 37 27 14 5 355 346 335 322 313 305 296 284 276 255 204 188 183 177 172 170 166 160 160 155 148 146 148 150 146 145 148 152 155 160 161 161 156 149
94 122 141 70 33 25 18 16 12 10 5 357 351 341 336 324 301 286 258 218 186 180 165 161 163 163 160 156 153 150 150 148 146 145 149 148 146 150 160 159 157 158 160 158
80 64 357 44 353 358 1 359 359 358 357 358 357 355 354 352 320 277 223 182 169 162 160 165 161 158 154 155 156 156 153 151 150 150 151 151 150 154 157 161 167 160 160 157
33 353 340 331 339 338 340 343 345 348 352 353 352 1 7 8 353 308 177 173 164 157 156 154 154 154 152 152 156 161 160 155 154 154 153 156 159 158 157 156 160 164 164 164
322 320 314 321 316 318 323 328 333 339 349 355 351 359 9 15 33 67 124 154 157 154 156 157 155 153 153 155 157 153 152 152 147 151 153 151 152 156 162 162 158 160 160 160
309 304 302 306 307 311 313 317 323 332 341 350 355 350 4 12 19 25 95 135 152 153 154 157 157 156 155 154 153 152 152 150 153 153 157 156 150 153 156 156 158 166 167 165
304 298 291 286 290 291 296 302 307 317 327 334 343 347 352 4 7 33 64 121 151 159 160 161 162 158 156 157 157 153 154 159 159 162 154 154 157 158 162 162 165 162 169 179
303 300 300 292 280 278 278 279 283 292 305 316 325 333 340 352 357 36 54 74 177 179 170 172 168 165 164 162 157 158 166 165 165 162 161 162 163 164 167 168 163 167 173 187
297 293 290 280 272 270 268 268 272 279 288 298 308 316 324 335 345 346 1 93 133 174 191 183 176 172 170 169 170 167 170 167 163 165 168 167 167 167 166 167 168 167 176 182
311 298 288 272 260 257 257 259 262 268 275 284 290 295 298 309 322 333 324 202 176 194 184 193 186 184 184 183 175 171 170 167 168 171 170 173 172 172 172 173 174 179 179 179
330 315 298 276 249 241 248 253 259 262 264 266 273 278 282 285 296 312 312 264 170 197 218 202 189 186 188 187 170 175 174 174 174 175 177 175 176 175 176 176 176 177 178 175
345 329 316 282 241 234 245 256 260 259 260 260 263 266 271 275 277 281 293 278 229 188 205 221 196 193 196 189 175 184 183 182 181 181 185 177 180 176 178 178 176 178 178 179
359 353 330 293 255 244 245 253 260 263 263 264 262 264 267 270 270 267 269 255 240 227 201 215 219 207 203 207 189 194 192 189 188 188 183 183 182 180 180 178 179 180 182 183
10 9 1 347 279 260 260 261 260 263 266 266 267 264 262 260 252 254 254 267 233 229 213 216 222 219 212 209 196 200 199 198 195 193 188 187 185 185 183 182 183 183 184 185
15 21 21 16 358 319 291 280 269 264 265 269 264 258 255 254 255 249 250 250 242 224 217 207 219 219 211 204 201 204 205 204 202 199 193 192 188 188 189 188 186 185 184 185
19 20 23 13 14 1 317 298 279 272 266 268 265 259 254 248 249 251 250 248 238 234 222 212 222 221 210 201 208 210 209 208 205 203 199 197 195 194 194 194 191 187 187 186
12 17 24 26 32 16 21 349 340 312 298 283 268 266 271 267 255 250 247 243 237 238 212 219 221 214 213 206 212 215 213 213 210 208 207 206 202 201 200 199 196 194 192 190
14 11 12 34 34 23 38 32 22 48 50 81 67 61 73 19 253 245 234 228 229 230 216 211 218 214 208 211 212 217 220 219 217 216 213 212 210 207 205 205 202 200 197 193
Wind_Speed_850mb
42 45 48 51 50 55 51 55 53 50 48 45 32 19 13 16 5 6 7 20 35 44 48 52 61 63 60 56 56 56 56 54 52 54 56 57 57 51 45 42 35 34 33 33
42 29 35 56 55 57 54 50 54 51 46 40 53 36 25 24 14 8 8 9 26 37 45 58 69 71 70 68 66 61 58 56 55 57 52 49 43 38 35 34 31 32 33 33
38 44 28 42 48 55 48 55 50 46 34 22 28 25 35 34 28 21 13 9 19 31 36 57 73 73 73 70 68 62 59 56 49 42 39 32 27 24 23 23 24 27 29 31
35 33 47 21 36 42 45 46 46 44 33 34 37 30 25 18 20 23 22 23 18 23 26 29 51 66 64 62 63 59 57 46 40 35 28 29 22 19 18 20 24 26 29 29
32 39 25 37 12 15 33 23 9 14 5 7 8 19 40 40 36 33 31 28 18 18 24 23 36 57 63 62 57 48 45 44 39 28 26 26 20 17 18 24 27 28 31 32
22 41 42 15 11 9 8 19 9 4 6 7 11 19 19 11 16 28 34 37 31 21 25 21 29 39 43 49 48 49 45 39 34 30 32 28 26 24 26 26 29 37 36 34
18 27 16 15 8 4 29 7 8 7 8 13 13 19 43 38 33 34 39 38 38 31 25 22 31 38 43 43 42 40 41 39 38 40 35 33 26 26 30 31 38 42 48 46
13 32 16 29 9 6 16 13 16 16 15 23 31 41 43 44 42 38 37 34 29 31 30 27 34 43 45 44 46 47 46 45 43 39 34 28 25 32 35 41 48 53 58 49
14 12 22 36 30 21 19 16 22 23 23 24 32 38 42 44 39 36 34 27 23 29 32 30 35 43 49 51 54 53 51 45 41 37 31 27 31 39 45 48 55 57 55 48
4 18 25 29 28 24 26 25 24 26 27 30 33 39 40 37 32 27 21 21 24 35 35 36 43 48 54 59 57 53 49 45 39 34 33 35 39 41 49 53 56 53 45 40
20 17 17 15 28 24 30 27 28 29 30 36 42 42 39 33 27 18 16 16 28 36 43 49 53 57 59 58 55 52 47 42 37 33 35 46 51 50 51 49 40 37 37 37
12 15 13 15 28 21 34 33 33 35 37 39 50 48 39 29 21 9 10 19 31 38 46 60 62 65 60 56 52 47 43 39 35 42 47 50 54 58 56 46 39 38 39 36
9 18 20 28 26 14 36 33 33 34 34 37 47 51 39 30 21 1 11 22 31 38 46 65 69 64 58 53 45 37 30 40 47 49 56 53 53 52 49 44 34 34 40 39
26 34 38 31 34 33 32 32 32 30 27 31 40 47 46 32 30 6 9 21 29 39 53 66 66 61 54 47 41 36 41 44 44 45 44 43 41 43 47 49 51 50 44 40
26 21 32 38 37 34 32 32 31 28 29 32 35 45 51 40 29 26 14 18 30 45 48 56 60 57 50 45 42 41 47 43 41 43 46 47 38 39 38 39 39 46 51 46
42 41 38 39 46 41 34 29 27 28 29 32 35 39 45 43 27 24 11 16 26 42 49 54 54 52 49 46 46 46 42 45 45 54 46 41 42 41 40 39 38 39 42 49
50 46 39 37 40 43 40 35 31 31 32 32 33 36 39 40 35 12 17 7 8 32 43 47 48 48 46 46 43 41 42 45 45 43 41 43 42 41 39 38 37 38 37 46
50 53 53 49 48 48 48 42 37 35 34 34 33 33 32 35 39 30 5 5 6 21 33 42 45 47 47 45 40 37 40 51 43 44 43 42 40 39 37 34 37 39 38 44
47 59 58 54 53 51 49 49 43 39 35 34 32 32 31 30 31 31 19 7 4 15 26 33 40 41 43 42 37 36 44 48 47 45 42 43 42 37 38 40 41 41 40 51
47 46 48 46 47 43 42 44 42 40 36 33 33 33 35 33 29 28 27 20 19 8 19 33 36 33 37 40 44 40 45 48 48 44 42 41 39 40 39 42 41 41 41 48
53 40 34 27 32 35 34 33 35 37 35 35 37 35 37 37 29 26 25 28 29 31 23 26 32 30 39 43 48 41 45 47 45 44 42 43 43 42 42 43 42 41 42 45
71 40 27 19 22 29 31 29 29 30 31 32 34 37 38 40 34 31 30 29 21 29 32 33 39 42 36 44 43 43 46 46 45 44 44 44 45 46 46 46 45 44 43 44
73 59 35 21 17 24 27 29 30 32 36 36 38 40 43 41 35 32 29 24 28 37 35 31 36 47 51 46 47 47 48 47 47 46 48 48 48 47 48 49 48 46 45 46
68 66 55 36 22 16 23 31 37 42 46 49 45 46 42 44 42 39 38 35 37 45 42 39 54 51 52 46 50 51 51 50 49 47 48 50 50 48 47 50 50 48 47 49
79 74 58 50 60 52 27 25 23 24 28 34 37 37 40 41 48 41 35 36 38 41 48 51 55 45 50 49 53 51 52 52 52 50 52 54 54 53 52 52 53 53 52 50
64 85 62 61 53 58 42 17 17 13 21 19 18 17 24 33 38 45 45 39 35 38 46 44 52 53 50 52 52 50 51 52 53 55 53 54 56 56 56 55 57 59 56 55
54 64 78 65 55 50 57 58 39 45 18 11 11 14 12 2 14 27 36 41 43 43 48 41 41 50 51 51 54 51 52 53 54 56 59 60 60 62 61 61 59 60 58 56
Wind_Direction_850mb
227 196 201 199 213 211 216 221 222 220 217 237 194 210 186 165 156 33 106 179 195 196 197 197 202 206 210 214 215 218 226 231 236 240 244 247 250 252 253 251 243 237 232 230
221 210 221 202 205 212 211 221 235 235 242 217 240 235 233 243 238 271 297 204 203 206 207 208 209 210 210 216 220 222 228 233 240 243 247 252 252 252 251 247 234 228 223 215
214 211 202 210 201 212 211 219 222 226 221 193 215 230 240 246 262 276 268 219 218 217 212 219 218 216 218 218 224 225 231 234 236 241 246 248 249 239 230 221 219 221 208 200
207 200 215 200 198 209 213 220 226 236 236 250 248 247 267 262 246 253 258 267 254 237 229 232 225 223 219 220 223 221 226 230 236 239 237 234 231 233 211 194 198 197 192 189
210 207 200 201 181 211 211 184 28 293 170 246 273 281 260 251 254 260 267 265 266 262 267 266 224 216 217 216 219 218 224 224 226 222 210 201 189 188 179 186 184 178 169 172
205 199 206 82 23 359 311 183 50 26 247 289 294 229 231 3 295 272 266 260 264 263 271 287 213 209 213 215 214 215 213 212 205 193 189 171 167 168 173 169 164 158 156 169
207 207 99 351 346 234 201 156 12 339 319 304 277 284 310 311 298 287 278 270 263 256 252 256 205 191 196 200 198 196 192 188 181 176 161 164 166 166 165 161 154 151 156 158
235 216 133 347 124 277 40 36 10 348 340 311 296 295 299 298 291 285 282 275 259 232 232 231 197 192 189 181 177 177 174 170 163 153 156 155 159 155 152 154 154 157 159 146
351 74 90 62 78 82 50 37 13 356 342 326 312 306 302 300 296 287 280 274 238 206 209 209 191 179 175 169 166 165 159 151 148 147 148 146 153 154 153 158 159 160 154 147
194 118 95 74 62 57 37 27 14 5 355 346 335 322 313 305 296 284 276 255 204 188 183 177 172 170 166 160 160 155 148 146 148 150 146 145 148 152 155 160 161 161 156 149
94 122 141 70 33 25 18 16 12 10 5 357 351 341 336 324 301 286 258 218 186 180 165 161 163 163 160 156 153 150 150 148 146 145 149 148 146 150 160 159 157 158 160 158
80 64 357 44 353 358 1 359 359 358 357 358 357 355 354 352 320 277 223 182 169 162 160 165 161 158 154 155 156 156 153 151 150 150 151 151 150 154 157 161 167 160 160 157
33 353 340 331 339 338 340 343 345 348 352 353 352 1 7 8 353 308 177 173 164 157 156 154 154 154 152 152 156 161 160 155 154 154 153 156 159 158 157 156 160 164 164 164
322 320 314 321 316 318 323 328 333 339 349 355 351 359 9 15 33 67 124 154 157 154 156 157 155 153 153 155 157 153 152 152 147 151 153 151 152 156 162 162 158 160 160 160
309 304 302 306 307 311 313 317 323 332 341 350 355 350 4 12 19 25 95 135 152 153 154 157 157 156 155 154 153 152 152 150 153 153 157 156 150 153 156 156 158 166 167 165
304 298 291 286 290 291 296 302 307 317 327 334 343 347 352 4 7 33 64 121 151 159 160 161 162 158 156 157 157 153 154 159 159 162 154 154 157 158 162 162 165 162 169 179
303 300 300 292 280 278 278 279 283 292 305 316 325 333 340 352 357 36 54 74 177 179 170 172 168 165 164 162 157 158 166 165 165 162 161 162 163 164 167 168 163 167 173 187
297 293 290 280 272 270 268 268 272 279 288 298 308 316 324 335 345 346 1 93 133 174 191 183 176 172 170 169 170 167 170 167 163 165 168 167 167 167 166 167 168 167 176 182
311 298 288 272 260 257 257 259 262 268 275 284 290 295 298 309 322 333 324 202 176 194 184 193 186 184 184 183 175 171 170 167 168 171 170 173 172 172 172 173 174 179 179 179
330 315 298 276 249 241 248 253 259 262 264 266 273 278 282 285 296 312 312 264 170 197 218 202 189 186 188 187 170 175 174 174 174 175 177 175 176 175 176 176 176 177 178 175
345 329 316 282 241 234 245 256 260 259 260 260 263 266 271 275 277 281 293 278 229 188 205 221 196 193 196 189 175 184 183 182 181 181 185 177 180 176 178 178 176 178 178 179
359 353 330 293 255 244 245 253 260 263 263 264 262 264 267 270 270 267 269 255 240 227 201 215 219 207 203 207 189 194 192 189 188 188 183 183 182 180 180 178 179 180 182 183
10 9 1 347 279 260 260 261 260 263 266 266 267 264 262 260 252 254 254 267 233 229 213 216 222 219 212 209 196 200 199 198 195 193 188 187 185 185 183 182 183 183 184 185
15 21 21 16 358 319 291 280 269 264 265 269 264 258 255 254 255 249 250 250 242 224 217 207 219 219 211 204 201 204 205 204 202 199 193 192 188 188 189 188 186 185 184 185
19 20 23 13 14 1 317 298 279 272 266 268 265 259 254 248 249 251 250 248 238 234 222 212 222 221 210 201 208 210 209 208 205 203 199 197 195 194 194 194 191 187 187 186
12 17 24 26 32 16 21 349 340 312 298 283 268 266 271 267 255 250 247 243 237 238 212 219 221 214 213 206 212 215 213 213 210 208 207 206 202 201 200 199 196 194 192 190
14 11 12 34 34 23 38 32 22 48 50 81 67 61 73 19 253 245 234 228 229 230 216 211 218 214 208 211 212 217 220 219 217 216 213 212 210 207 205 205 202 200 197 193